Regional Weather Roundup
Issued by NWS

Home | Current Version | Previous Version | Text Only | Print | Product List | Glossary On
Versions: 1 2 3 4 5 6 7 8 9 10 11 12 13 14 15 16 17 18 19 20 21 22 23 24 25 26 27 28 29 30 31 32 33 34 35 36 37 38 39 40 41 42 43 44 45 46 47 48 49 50
000
ASUS44 KLUB 050410
RWRTX
WEST TEXAS WEATHER ROUNDUP
NATIONAL WEATHER SERVICE LUBBOCK TX
1100 PM CDT FRI SEP 04 2015

NOTE: "FAIR" INDICATES FEW OR NO CLOUDS BELOW 12,000 FEET WITH NO
SIGNIFICANT WEATHER AND/OR OBSTRUCTIONS TO VISIBILITY.

TXZ004-006>008-010-012-014-016-OKZ002-050500-
TEXAS PANHANDLE/OKLAHOMA PANHANDLE

CITY           SKY/WX    TMP DP  RH WIND       PRES   REMARKS
AMARILLO       PTCLDY    75  56  51 SE12      30.02R
BORGER         MOCLDY    83  56  39 SE13G20   29.98R
CANADIAN       PTCLDY    82  62  51 S15G22    29.95S
DALHART        CLOUDY    81  53  37 S9        30.03R
DUMAS          MOCLDY    78  55  45 S10       30.01S
GUYMON         PTCLDY    81  56  42 S13       29.95R
HEREFORD       MOCLDY    76  58  54 S8        30.04S
PAMPA          PTCLDY    78  58  50 SE13      30.02R
PERRYTON       PTCLDY    79  58  48 SE14      29.98R
$$

TXZ026-029-035-045-048-050500-
SOUTHERN PANHANDLE/SOUTH PLAINS/ROLLING PLAINS

CITY           SKY/WX    TMP DP  RH WIND       PRES   REMARKS
CHILDRESS      PTCLDY    82  60  47 SE10      29.95R
SEMINOLE       CLEAR     76  52  43 SE5       30.02R
LUBBOCK        MOCLDY    75  55  49 SE7       30.01R
PLAINVIEW      CLEAR     71  50  47 SE7       30.01S
SNYDER         CLEAR     80  58  47 E6        29.98R
$$

TXZ052-054-060>062-072-078-127-140-154-169-050500-
PERMIAN BASIN/CONCHO VALLEY/BIG COUNTRY/EDWARDS PLATEAU

CITY           SKY/WX    TMP DP  RH WIND       PRES   REMARKS
ABILENE        CLEAR     83  64  52 SE9       29.96R
BIG SPRING     CLEAR     80  54  39 E8        29.99R
BRADY          CLEAR     84  64  51 SE8       29.97R
JUNCTION       CLEAR     83  65  54 SE12      29.96R
MIDLAND        CLEAR     81  54  39 SE6       29.98R
ODESSA         CLEAR     83  53  35 SE8       29.99R
SAN ANGELO     CLEAR     84  60  44 SE10      29.93R
SONORA         CLEAR     84  61  45 SE6       30.01R
SWEETWATER     CLEAR     81  60  48 SE6       30.00R
WINK           CLEAR     83  54  36 SE8       29.95R
$$

TXZ055-058-074-075-080-082-050500-
FAR WEST/SOUTHWEST MOUNTAINS/TRANS PECOS

CITY           SKY/WX    TMP DP  RH WIND       PRES   REMARKS
ALPINE         CLEAR     78  55  44 SE13      30.12R
DRYDEN           N/A     88  62  41 SE9       29.93R
EL PASO        CLOUDY    84  52  33 NW13      30.00R
FORT STOCKTON  CLEAR     83  55  38 SE9       29.98R
GUADALUPE PASS CLOUDY    77  48  35 NE21      30.13R
MARFA          CLEAR     72  48  43 N5        30.11R
PECOS          CLEAR     83  50  32 E8        29.94R
PRESIDIO       FAIR      91  51  25 MISG      29.91R
$$

TXZ014-016-019-021>030-083-050500
TEXAS TECH WEST TEXAS MESONET/TEXAS PANHANDLE/NORTHERN SOUTH PLAINS

CITY           SKY/WX    TMP DP  RH WIND       PRES   REMARKS
ABERNATHY 5ENE   N/A     73  53  49 SE6       30.03R
AMARILLO 9NNE    N/A     76  58  52 S7        30.00R
AMARILLO 7SSE    N/A     76  57  50 SE10      30.04R
AMHERST 1NE      N/A     75  55  48 SE8       30.03S
BOOTLEG 11WNW    N/A     71  58  62 S8        30.09R
CANADIAN 6E      N/A     78  61  56 SE10      29.96R
CAPROCK CYN SP   N/A     76  57  50 S6        29.99S
CHILDRESS 2NNE   N/A     81  60  49 SE10      29.95R
CLARENDON 2WSW   N/A     80  55  42 SE9       30.00R
CLAUDE 12SW      N/A     74  56  53 SE8       30.03R
DIMMITT 2NE      N/A     73  55  53 SE9       30.04S
FLOYDADA 2NNE    N/A     73  53  48 SE8       30.02S
FRIONA 2NE       N/A     75  53  46 S12       30.05S
GOODLETT 3W      N/A     84  61  46 SE12      29.93R
HART 3N          N/A     73  57  58 SE8       30.04S
HEREFORD 2NW     N/A     74  54  50 S6        30.04R
MCLEAN 1E        N/A     75  59  56 SE9       29.99S
MEMPHIS 1NE      N/A     80  59  48 SE5       29.96R
MULESHOE 2SSW    N/A     74  53  46 SE7       30.03S
OLTON 6S         N/A     70  57  61 SE8       30.03R
PALO DURO SP     N/A     80  56  44 S6        30.03S
PAMPA 2E         N/A     74  60  61 SE10      30.02R
PLAINVIEW 1S     N/A     76  56  51 SE6       30.02R
SILVERTON 7ESE   N/A     76  56  48 SE9       30.02S
TULIA 2ENE       N/A     73  59  60 S8        30.03R
TURKEY 2WSW      N/A     77  59  53 S6        29.97R
UMBARGER 3NNE    N/A     76  56  51 S10       30.04R
$$

TXZ033>036-039>041-045>048-050500
TEXAS TECH WEST TEXAS MESONET/SOUTH PLAINS

CITY           SKY/WX    TMP DP  RH WIND       PRES   REMARKS
AIKEN 3WSW       N/A     72  57  60 SE7       30.04R
ANDREWS 2NE      N/A     77  52  42 SE5       30.01R
ANTON 6SSW       N/A     71  57  60 SE5       30.02S
BROWNFIELD 2S    N/A     74  55  52 SE6       30.02R
DENVR CTY 7WNW   N/A     69  51  51 SE8       30.03R
GAIL 2ESE        N/A     76  56  50 SE6       29.97R
LAMESA 2SE       N/A     75  54  48 E5        30.00R
LEVELLAND 4S     N/A     74  54  48 SE8       30.03R
LUBBOCK 3WNW     N/A     79  52  39 SE7       30.02R
MORTON 1ENE      N/A     75  54  48 SE7       30.03S
ODONNELL 1N      N/A     77  51  41 SE6       30.01R
PLAINS 3N        N/A     73  53  48 SE8       30.03S
RALLS 1SE        N/A     75  54  47 SE6       30.02S
REESE CENTER     N/A     78  52  40 SE7       30.02R
SEAGRAVES 1SW    N/A     76  54  47 SE5       30.01S
SEMINOLE 2NNE    N/A     74  53  47 SE5       30.01R
SLATON 2NE       N/A     74  52  47 SE6       30.01R
SNYDER 3E        N/A     80  58  47 SE9       29.97R
SUNDOWN 8SW      N/A     70  53  54 SE8       30.03R
TAHOKA 3NNE      N/A     73  54  51 SE7       30.00S
WOLFFORTH 6SSW   N/A     74  54  48 SE7       30.02S
$$

TXZ031-032-036>038-042>044-050500-
TEXAS TECH WEST TEXAS MESONET/ROLLING PLAINS

CITY           SKY/WX    TMP DP  RH WIND       PRES   REMARKS
ASPERMONT 3NE    N/A     85  63  47 SE8       29.94R
FLUVANNA 3WNW    N/A     76  55  48 SE7       29.99R
GRAHAM 5SSW      N/A     82  52  35 SE6       30.00R
GUTHRIE 10WSW    N/A     83  60  45 SE9       29.95R
HASKELL 1NW      N/A     84  62  47 SE9       29.94R
JAYTON 1SSE      N/A     81  59  47 SE8       29.95R
KNOX CITY 3NW    N/A     85  62  45 SE12      29.94R
LK A HENRY 1NW   N/A     80  56  43 SE2       29.96R
NORTHFIELD 1S    N/A     82  60  46 SE12      29.95R
ODELL 4ENE       N/A     84  66  53 SE10      29.94S
PADUCAH 10SW     N/A     82  60  46 SE10      29.95R
POST 1NE         N/A     80  54  40 SE5       29.98R
RRING SPRGS 3N   N/A     77  59  53 S6        29.99R
SEYMOUR 3NW      N/A     84  64  49 SE12      29.93R
SPUR 1W          N/A     80  57  45 SE6       29.96R
WEINERT 2NNE     N/A     85  65  51 SE10      29.94R
WHITE RVR 6NE    N/A     79  54  41 E7        29.99R
$$

TXZ052-054-060>062-072-078-127-140-154-169-050500-
TEXAS TECH WEST TEXAS MESONET/PERMIAN BASIN/
CONCHO VALLEY/BIG COUNTRY/EDWARDS PLATEAU

CITY           SKY/WX    TMP DP  RH WIND       PRES   REMARKS
JUNCTION 1SSW    N/A     83  66  57 S9        29.97R
MERTZON 3NNE     N/A     79  59  49 S2        29.97R
SAN ANGELO 7NW   N/A     85  58  39 E9        29.94S
STRLNG CT 4WSW   N/A     84  59  43 E8        29.97R
ST LAWRNCE 5SW   N/A     77  53  43 E6        29.98R
SWEETWATR 11SW   N/A     81  63  52 SE10      29.99S
WALL 1E          N/A     83  60  44 SE8       29.95R
$$

TXZ055-058-074-075-080-082-050500-
TEXAS TECH WEST TEXAS MESONET/FAR WEST/SOUTHWEST MOUNTAINS/TRANS PECOS

CITY           SKY/WX    TMP DP  RH WIND       PRES   REMARKS
PRSMN GAP BBNP   N/A     86  58  38 N13       29.94R
$$



USA.gov is the U.S. government's official web portal to all federal, state and local government web resources and services.